Other Public Products
Issued by NWS Grand Forks, ND

Home | Current Version | Previous Version | Graphics & Text | Print | Product List | Glossary On
Versions: 1 2 3 4 5 6 7 8 9 10 11 12 13 14 15 16 17 18 19 20 21 22 23 24 25 26 27 28 29 30 31 32 33 34 35 36 37 38 39 40 41 42 43 44 45 46 47 48 49 50
000
FPUS83 KFGF 040631
OPUFGF
PRAIRIE TO PINES WEATHER ROUNDUP
NATIONAL WEATHER SERVICE EASTERN NORTH DAKOTA/GRAND FORKS ND
1200 AM CST WED MAR 04 2015

 **SATELLITE DATA USED TO AUGMENT SKY COVER AT AUTOMATED STATIONS**
 *****  WEATHER ACROSS EASTERN NORTH DAKOTA  *****

CITY           SKY/WX    TMP DP  RH WIND       PRES   REMARKS
GRAND FORKS    CLEAR     -1  -9  68 W10       30.04R WCI -17
6HR MIN TEMP:  -2; 6HR MAX TEMP:   6; 6HR PCP: TRACE;

GRAND FORKS AF CLEAR     -1 -11  64 NW12      30.03R WCI -19
GRAND CITY NWS   N/A     -2 N/A N/A NW13        N/A  WCI -21
BUXTON         NOT AVBL
DEVILS LAKE    CLEAR     -4 -13  65 W10       29.99S WCI -21
6HR MIN TEMP:  -2; 6HR MAX TEMP:   1;

FARGO          CLEAR      1  -8  66 W12       30.07S WCI -16
6HR MIN TEMP:   0; 6HR MAX TEMP:   9; 6HR PCP: TRACE;

WAHPETON ARPT  CLEAR     -2  -9  71 W8        30.08F WCI -17
$$

 *****  WEATHER ACROSS CENTRAL AND WESTERN NORTH DAKOTA  *****

CITY           SKY/WX    TMP DP  RH WIND       PRES   REMARKS
JAMESTOWN      CLEAR     -2 -11  65 W6        30.02S WCI -14
6HR MIN TEMP:  -2; 6HR MAX TEMP:   5;

BISMARCK       CLOUDY     2  -5  72 SW8       30.05S WCI -12
6HR MIN TEMP:   1; 6HR MAX TEMP:  10;

MINOT          PTCLDY    -1  -8  72 NW14      30.02R WCI -20
6HR MIN TEMP:  -2; 6HR MAX TEMP:   2; 6HR PCP: TRACE;

MINOT AFB      PTCLDY    -1  -8  71 NW16      30.01R WCI -21
6HR MIN TEMP:  -5; 6HR MAX TEMP:   2; 6HR PCP: TRACE;

GARRISON         N/A      2  -3  80 W12       30.01R WCI -15
6HR MIN TEMP: -10; 6HR MAX TEMP:   4; 6HR PCP:  0.01;

WILLISTON      CLEAR     -2 -10  69 NW16      30.11R WCI -23
6HR MIN TEMP:  -2; 6HR MAX TEMP:   7; 6HR PCP:  0.01;

DICKINSON      PTCLDY     5  -3  69 NW21G28   29.98R WCI -16
6HR MIN TEMP:   1; 6HR MAX TEMP:  11; 6HR PCP: TRACE;

HETTINGER      CLOUDY     6  -3  66 W10       30.01R WCI  -9
6HR MIN TEMP:  -2; 6HR MAX TEMP:  13;

$$

 *****  OTHER OBSERVATIONS NORTHEAST NORTH DAKOTA  *****

CITY           SKY/WX    TMP DP  RH WIND       PRES   REMARKS
WALHALLA         N/A     -2 -13  60 W12       30.01R WCI -20
LANGDON        NOT AVBL
CAVALIER       FAIR      -2 -13  60 NW12      30.02R WCI -20
GRAFTON        NOT AVBL
CANDO          FAIR      -9 -13  84 W10       30.00S WCI -28
FORT TOTTEN    NOT AVBL
ROLLA          FAIR      -4 -13  65 NW15G23   29.95S WCI -25
RUGBY          FAIR      -8 -13  77 NW9       30.01R WCI -25
 ***** THE ABOVE OBSERVATIONS ARE NON NWS ARE NOT QUALITY
        CONTROLLED AND MAY MIS-REPORT RAIN FOR SNOW...
$$

 *****  OTHER OBSERVATIONS SOUTHEAST NORTH DAKOTA *****

CITY           SKY/WX    TMP DP  RH WIND       PRES   REMARKS
COOPERSTOWN    NOT AVBL
VALLEY CITY    FAIR       0  -8  71 W12       30.03S WCI -18
OAKES            N/A      0  -8  71 W10       30.07S WCI -17
GWINNER        CLEAR      3  -8  60 W8        30.08S WCI -10
BUFFALO        NOT AVBL
WYNDMERE       NOT AVBL
 ***** THE ABOVE OBSERVATIONS ARE NON NWS ARE NOT QUALITY
       CONTROLLED AND MAY MIS-REPORT RAIN FOR SNOW...
$$

  *****  WEATHER ACROSS NORTHERN MINNESOTA  *****

CITY           SKY/WX    TMP DP  RH WIND       PRES   REMARKS
FLAG ISLAND    CLEAR     -8 -17  65 W7        29.90R WCI -22
WARROAD        CLEAR     -8 -13  77 W8        29.92S WCI -23
ROSEAU         CLEAR     -6 -11  77 W8        29.94S WCI -21
HALLOCK        CLEAR     -6 -13  71 W5        30.00R WCI -17
THF RVR FALLS  CLOUDY    -2  -9  71 W10       29.97F WCI -19
6HR MIN TEMP:  -2; 6HR MAX TEMP:   3;

HALSTAD          N/A     -1  -9  67 W10         N/A  WCI -17
FOSSTON        FAIR      -8 -13  77 W7        29.97S WCI -22
BAUDETTE       PTCLDY    -5 -11  75 W9        29.89R WCI -22
6HR MIN TEMP:  -5; 6HR MAX TEMP:   4;

WASKISH        FAIR      -6  -9  84 W8        29.91F WCI -21
CROOKSTON      CLEAR      0  -8  71 NW13      30.03F WCI -18
$$
  *****  WEATHER ACROSS CENTRAL AND WEST MINNESOTA  *****

CITY           SKY/WX    TMP DP  RH WIND       PRES   REMARKS
BEMIDJI        CLEAR     -5 -10  79 W9        29.93S WCI -21
PARK RAPIDS    FAIR      -2  -9  72 W13       29.93S WCI -20
6HR MIN TEMP:  -2; 6HR MAX TEMP:   5;

WADENA         CLEAR     -2  -9  71 NW14      29.98R WCI -21
DETROIT LAKES  CLEAR      0  -8  71 NW14      30.00R WCI -19
MOORHEAD       CLEAR      1  -6  71 W13       30.07S WCI -16
FERGUS FALLS   CLEAR     -2  -9  71 NW10      30.09S WCI -19
ELBOW LAKE     FAIR      -1  -7  74 W9        30.04S WCI -17
6HR MIN TEMP:  -1; 6HR MAX TEMP:   8;

MORRIS MN      CLEAR     -2  -9  71 W10       30.06R WCI -19
STAPLES        CLEAR     -4  -9  77 W12       29.98R WCI -22
WHEATON        CLEAR      0  -8  71 W12       30.11R WCI -18
$$
  *****  WEATHER ELSEWHERE ACROSS MINNESOTA  *****

CITY           SKY/WX    TMP DP  RH WIND       PRES   REMARKS
DULUTH         FLURRIES   1  -8  66 NW16      29.83R WCI -19
6HR MIN TEMP:   1; 6HR MAX TEMP:  15; 6HR PCP: TRACE;

INTRNTL FALLS  LGT SNOW  -4 -10  75 W9        29.87R WCI -20
6HR MIN TEMP:  -4; 6HR MAX TEMP:   6; 6HR PCP: TRACE;

ELY            CLEAR     -2  -9  71 W7G22     29.80R WCI -16
CLOQUET        CLEAR      0 -11  60 W12G23    29.88R WCI -18
BRAINERD       CLEAR      0  -7  72 NW9       29.96R WCI -15
6HR MIN TEMP:   0; 6HR MAX TEMP:  12;

HIBBING        CLEAR     -2 -12  62 NW12      29.86R WCI -20
6HR MIN TEMP:  -2; 6HR MAX TEMP:  11;

ALEXANDRIA     CLEAR     -1  -8  72 NW16      30.00S WCI -21
6HR MIN TEMP:  -1; 6HR MAX TEMP:   8; 6HR PCP: TRACE;

SAINT CLOUD    CLEAR      2  -6  69 NW15      30.00R WCI -17
6HR MIN TEMP:   2; 6HR MAX TEMP:  13;

MINNEAPOLIS    PTCLDY     6  -3  66 NW15      30.02R WCI -12
6HR MIN TEMP:   6; 6HR MAX TEMP:  18;

$$

  *****  WEATHER ACROSS SOUTH DAKOTA  *****

CITY           SKY/WX    TMP DP  RH WIND       PRES   REMARKS
SIOUX FALLS    MOCLDY     6  -1  73 NW6       30.11R WCI  -4
6HR MIN TEMP:   6; 6HR MAX TEMP:  14;

BROOKINGS      NOT AVBL
WATERTOWN      CLEAR     -2  -8  76 NW8       30.05R WCI -17
6HR MIN TEMP:  -2; 6HR MAX TEMP:   9;

HURON          PTCLDY    -6 -10  83 W7        30.13R WCI -20
6HR MIN TEMP:  -6; 6HR MAX TEMP:  15;

SISSETON         N/A      2  -7  66 NW16      30.08R WCI -18
ABERDEEN       CLEAR      1  -8  66 NW7       30.12S WCI -12
6HR MIN TEMP:  -1; 6HR MAX TEMP:  13;

MITCHELL       PTCLDY     4  -1  80 NW7       30.15R WCI  -8
PIERRE         CLEAR      5  -3  69 W7        30.11R WCI  -7
6HR MIN TEMP:   2; 6HR MAX TEMP:  19;

MOBRIDGE       CLEAR      0  -4  83 N3        30.04F
RAPID CITY     CLEAR      4  -4  69 W3        30.06R
6HR MIN TEMP:  -1; 6HR MAX TEMP:  14;

$$

  *****  SOME WEATHER IN NEARBY STATES *****

CITY           SKY/WX    TMP DP  RH WIND       PRES   REMARKS
GLASGOW MT     PTCLDY     2  -5  72 N10       30.14R WCI -14
6HR MIN TEMP:   2; 6HR MAX TEMP:  16; 6HR PCP: TRACE;

GREAT FALLS MT CLOUDY    11   2  67 NW8       30.15R WCI  -1
6HR MIN TEMP:   5; 6HR MAX TEMP:  19;

CHEYENNE WY    LGT SNOW   7   3  84 N7        29.90S FOG     WCI  -5
6HR MIN TEMP:   7; 6HR MAX TEMP:  11; 6HR PCP:  0.03;

SCOTTSBLUFF NE CLOUDY    14   7  73 NW8       30.06R WCI   3
6HR MIN TEMP:  14; 6HR MAX TEMP:  19; 6HR PCP: TRACE;

OMAHA NE       CLOUDY    18   6  59 N17G26    30.14R WCI   3
6HR MIN TEMP:  17; 6HR MAX TEMP:  28;

DES MOINES IA  MOCLDY    16   6  65 N16G22    30.08R WCI   1
6HR MIN TEMP:  16; 6HR MAX TEMP:  29;

DAVENPORT IA   MOCLDY    19  11  70 NW15      29.98R WCI   5
6HR MIN TEMP:  19; 6HR MAX TEMP:  32;

CHICAGO IL     CLOUDY    31  23  72 W8        29.85S WCI  23
6HR MIN TEMP:  30; 6HR MAX TEMP:  34;

EAU CLAIRE WI  CLEAR      9  -3  58 W9G18     29.94R WCI  -4
6HR MIN TEMP:   9; 6HR MAX TEMP:  27;

LA CROSSE WI   CLEAR     14   4  64 W12       29.97R WCI   0
6HR MIN TEMP:  14; 6HR MAX TEMP:  31;

$$

  *****  SOME NATIONAL WEATHER *****

CITY           SKY/WX    TMP DP  RH WIND       PRES   REMARKS
LA GUARDIA NY  CLOUDY    36  32  85 SW12G20   29.81S



USA.gov is the U.S. government's official web portal to all federal, state and local government web resources and services.